,,PA_Meas_PMT16A,,PR_Meas_QMR101_102,,RH_Meas_QMH101,,SR_Meas_QMS101,,TA_Meas_QMH101,,GenWind,,GenWind,
time,status,PA,status,PR,status,RH,status,SR,status,TA,status,DirAvg,status,SpdAvg,
2016-08-20, 00:00:04,VALID,914.706,VALID,0,VALID,72.979,VALID,110.987,VALID,24.8864,VALID,37,VALID,0,
2016-08-20, 00:01:04,VALID,914.685,VALID,0,VALID,74.7781,VALID,109.16,VALID,24.9059,VALID,18,VALID,0.178516,
2016-08-20, 00:02:04,VALID,914.68,VALID,0,VALID,73.8252,VALID,108.408,VALID,24.8492,VALID,24,VALID,0.696094,
2016-08-20, 00:03:04,VALID,914.685,VALID,0,VALID,73.8861,VALID,107.441,VALID,24.8083,VALID,12,VALID,0.836328,
2016-08-20, 00:04:04,VALID,914.69,VALID,0,VALID,73.6574,VALID,108.838,VALID,24.8669,VALID,38,VALID,0.93125,
2016-08-20, 00:05:04,VALID,914.694,VALID,0,VALID,73.6422,VALID,107.549,VALID,24.8864,VALID,3,VALID,0,
2016-08-20, 00:06:04,VALID,914.701,VALID,0,VALID,73.7489,VALID,110.127,VALID,24.9274,VALID,18,VALID,0.267188,
2016-08-20, 00:07:04,VALID,914.718,VALID,0,VALID,74.0234,VALID,106.582,VALID,24.8278,VALID,6,VALID,0.0289063,
2016-08-20, 00:08:04,VALID,914.731,VALID,0,VALID,74.0081,VALID,98.2012,VALID,24.8297,VALID,13,VALID,0.222266,
2016-08-20, 00:09:04,VALID,914.758,VALID,0,VALID,74.7476,VALID,92.5068,VALID,24.7907,VALID,17,VALID,0,
2016-08-20, 00:10:04,VALID,914.74,VALID,0,VALID,73.8099,VALID,84.019,VALID,24.8492,VALID,323,VALID,0,
2016-08-20, 00:11:04,VALID,914.749,VALID,0,VALID,74.9001,VALID,79.2916,VALID,24.8278,VALID,19,VALID,0,
2016-08-20, 00:14:04,VALID,914.842,VALID,0,VALID,73.8785,VALID,81.4404,VALID,24.693,VALID,16,VALID,0.252344,
2016-08-20, 00:15:04,VALID,914.853,VALID,0,VALID,74.6485,VALID,86.4901,VALID,24.6735,VALID,175,VALID,0.0417969,
2016-08-20, 00:16:04,VALID,914.838,VALID,0,VALID,74.2292,VALID,88.1017,VALID,24.6521,VALID,29,VALID,0.895312,
2016-08-20, 00:17:04,VALID,914.851,VALID,0,VALID,75.1135,VALID,84.3413,VALID,24.6326,VALID,18,VALID,0,
2016-08-20, 00:18:04,VALID,914.912,VALID,0,VALID,75.3498,VALID,80.1511,VALID,24.6131,VALID,9,VALID,0,
2016-08-20, 00:47:04,VALID,915.266,VALID,0,VALID,75.6243,VALID,63.82,VALID,24.1287,VALID,344,VALID,0,
2016-08-20, 00:48:04,VALID,915.305,VALID,0,VALID,76.2189,VALID,71.0186,VALID,24.0701,VALID,344,VALID,0,
2016-08-20, 00:49:04,VALID,915.348,VALID,0,VALID,76.7297,VALID,70.5888,VALID,24.0488,VALID,344,VALID,0,
2016-08-20, 00:50:04,VALID,915.412,VALID,0,VALID,76.9736,VALID,69.0847,VALID,24.0683,VALID,344,VALID,0,
2016-08-20, 00:51:04,VALID,915.464,VALID,0,VALID,76.1198,VALID,65.8614,VALID,24.1482,VALID,344,VALID,0,
2016-08-20, 00:52:04,VALID,915.52,VALID,0,VALID,76.2723,VALID,61.5638,VALID,24.2263,VALID,344,VALID,0,
2016-08-20, 14:56:04,VALID,917.243,VALID,0,INVALID,117.012,VALID,94.2259,VALID,20.486,VALID,50,VALID,0,
2016-08-20, 14:57:04,VALID,917.25,VALID,0,INVALID,117.058,VALID,96.3747,VALID,20.525,VALID,112,VALID,0,
2016-08-20, 14:58:04,VALID,917.27,VALID,0,INVALID,117.058,VALID,91.2175,VALID,20.5445,VALID,138,VALID,0,
2016-08-20, 15:03:04,VALID,917.318,VALID,0,INVALID,117.073,VALID,83.9115,VALID,20.6421,VALID,19,VALID,0.144531,
2016-08-20, 15:04:04,VALID,917.29,VALID,0,INVALID,117.073,VALID,79.8288,VALID,20.6405,VALID,341,VALID,0,
2016-08-20, 15:05:04,VALID,917.299,VALID,0,INVALID,117.012,VALID,90.5729,VALID,20.66,VALID,360,VALID,0,
2016-08-20, 15:06:04,VALID,917.312,VALID,0,INVALID,117.073,VALID,86.9199,VALID,20.699,VALID,29,VALID,0,
2016-08-20, 15:07:04,VALID,917.306,VALID,0,INVALID,117.111,VALID,111.416,VALID,20.7381,VALID,28,VALID,0,
2016-08-20, 15:08:04,VALID,917.351,VALID,0,INVALID,117.096,VALID,107.656,VALID,20.7185,VALID,78,VALID,0,
2016-08-20, 15:09:04,VALID,917.406,VALID,0,INVALID,117.035,VALID,96.697,VALID,20.699,VALID,268,VALID,0.894922,
2016-08-20, 15:10:04,VALID,917.4,VALID,0,INVALID,116.867,VALID,93.5812,VALID,20.6405,VALID,241,VALID,1.35625,
2016-08-20, 15:11:04,VALID,917.437,VALID,0,INVALID,116.684,VALID,76.4981,VALID,20.6421,VALID,271,VALID,0,
2016-08-20, 15:20:04,VALID,917.573,VALID,0,INVALID,116.57,VALID,91.2175,VALID,20.699,VALID,291,VALID,0,
2016-08-20, 15:21:04,VALID,917.58,VALID,0,INVALID,116.493,VALID,74.4567,VALID,20.7185,VALID,272,VALID,0,
2016-08-20, 15:49:04,VALID,917.864,VALID,0,INVALID,117.157,VALID,131.508,VALID,20.6811,VALID,72,VALID,0,
2016-08-20, 15:51:04,VALID,917.882,VALID,0,INVALID,117.103,VALID,128.5,VALID,20.7381,VALID,347,VALID,0,
2016-08-20, 15:52:04,VALID,917.9,VALID,0,INVALID,117.134,VALID,156.757,VALID,20.795,VALID,51,VALID,0,
2016-08-20, 15:53:04,VALID,917.884,VALID,0,INVALID,117.164,VALID,165.137,VALID,20.8746,VALID,37,VALID,0.374609,
2016-08-20, 15:54:04,VALID,917.898,VALID,0,INVALID,117.134,VALID,170.187,VALID,20.8925,VALID,213,VALID,0,
2016-08-20, 15:55:04,VALID,917.873,VALID,0,INVALID,117.004,VALID,214.023,VALID,20.9331,VALID,43,VALID,0,
2016-08-20, 15:56:04,VALID,917.865,VALID,0,INVALID,116.905,VALID,234.007,VALID,20.9901,VALID,37,VALID,0,
2016-08-20, 15:57:04,VALID,917.865,VALID,0,INVALID,116.836,VALID,253.346,VALID,21.1087,VALID,222,VALID,0,
2016-08-20, 15:58:04,VALID,917.854,VALID,0,INVALID,116.516,VALID,266.132,VALID,21.1071,VALID,344,VALID,0.938281,
2016-08-20, 15:59:04,VALID,917.873,VALID,0,INVALID,116.12,VALID,192.212,VALID,21.1478,VALID,336,VALID,0,
2016-08-20, 16:00:04,VALID,917.851,VALID,0,INVALID,116.021,VALID,230.998,VALID,21.2047,VALID,346,VALID,0,
2016-08-20, 16:01:04,VALID,917.82,VALID,0,INVALID,115.99,VALID,217.998,VALID,21.3022,VALID,318,VALID,0,
2016-08-20, 16:02:04,VALID,917.86,VALID,0,INVALID,115.861,VALID,202.097,VALID,21.3803,VALID,324,VALID,0,
2016-08-20, 16:03:04,VALID,917.875,VALID,0,INVALID,115.449,VALID,186.196,VALID,21.3998,VALID,262,VALID,0,
2016-08-20, 16:04:04,VALID,917.887,VALID,0,INVALID,114.488,VALID,188.882,VALID,21.3803,VALID,293,VALID,0,
2016-08-20, 16:05:04,VALID,917.88,VALID,0,INVALID,114.908,VALID,162.021,VALID,21.4388,VALID,30,VALID,0,
2016-08-20, 16:06:04,VALID,917.923,VALID,0,INVALID,114.214,VALID,144.616,VALID,21.4193,VALID,360,VALID,0,
2016-08-20, 16:07:04,VALID,917.924,VALID,0,INVALID,114.427,VALID,168.897,VALID,21.3803,VALID,8,VALID,0,
2016-08-20, 16:08:04,VALID,917.954,VALID,0,INVALID,115.457,VALID,187.27,VALID,21.4177,VALID,339,VALID,0,
2016-08-20, 16:09:04,VALID,917.95,VALID,0,INVALID,114.931,VALID,186.088,VALID,21.4177,VALID,306,VALID,0,
2016-08-20, 16:10:04,VALID,917.951,VALID,0,INVALID,114.237,VALID,193.287,VALID,21.3998,VALID,16,VALID,0,
2016-08-20, 16:11:04,VALID,917.96,VALID,0,INVALID,114.435,VALID,201.882,VALID,21.4177,VALID,351,VALID,0,
2016-08-20, 16:12:04,VALID,917.984,VALID,0,INVALID,114.786,VALID,214.345,VALID,21.4372,VALID,3,VALID,0,
2016-08-20, 16:13:04,VALID,917.968,VALID,0,INVALID,114.549,VALID,223.907,VALID,21.4372,VALID,23,VALID,0.424609,
2016-08-20, 16:14:04,VALID,917.962,VALID,0,INVALID,114.229,VALID,226.593,VALID,21.4583,VALID,12,VALID,1.5582,
2016-08-20, 16:15:04,VALID,918.005,VALID,0,INVALID,114.328,VALID,224.874,VALID,21.4372,VALID,16,VALID,1.38828,
2016-08-20, 16:16:04,VALID,918.02,VALID,0,INVALID,115.091,VALID,223.8,VALID,21.5347,VALID,21,VALID,1.31016,
2016-08-20, 16:17:04,VALID,918.044,VALID,0,INVALID,114.511,VALID,223.37,VALID,21.6144,VALID,5,VALID,1.52188,
2016-08-20, 16:18:04,VALID,918.015,VALID,0,INVALID,113.589,VALID,225.089,VALID,21.6323,VALID,18,VALID,1.60156,
2016-08-20, 16:19:04,VALID,918.053,VALID,0,INVALID,113.497,VALID,230.891,VALID,21.7315,VALID,357,VALID,1.19414,
2016-08-20, 16:20:04,VALID,918.028,VALID,0,INVALID,113.116,VALID,238.519,VALID,21.7493,VALID,5,VALID,1.32109,
2016-08-20, 16:21:04,VALID,918.023,VALID,0,INVALID,113.825,VALID,248.404,VALID,21.7883,VALID,14,VALID,1.24336,
2016-08-20, 16:22:04,VALID,918.057,VALID,0,INVALID,112.514,VALID,259.793,VALID,21.8079,VALID,8,VALID,1.85312,
2016-08-20, 16:23:04,VALID,918.014,VALID,0,VALID,98.8986,VALID,270.859,VALID,21.7883,VALID,5,VALID,0.948438,
2016-08-20, 16:24:04,VALID,918.018,VALID,0,VALID,104,VALID,281.496,VALID,21.8664,VALID,63,VALID,0,
2016-08-20, 16:25:04,VALID,918.012,VALID,0,VALID,104,VALID,296.752,VALID,22.003,VALID,5,VALID,0,
2016-08-20, 16:26:04,VALID,918,VALID,0,VALID,103.343,VALID,311.257,VALID,22.0989,VALID,276,VALID,0,
2016-08-20, 16:27:04,VALID,918.031,VALID,0,VALID,102.253,VALID,333.175,VALID,22.1591,VALID,21,VALID,0.745703,
2016-08-20, 16:28:04,VALID,918.008,VALID,0,VALID,98.5555,VALID,351.655,VALID,22.2176,VALID,22,VALID,1.71289,
2016-08-20, 16:29:04,VALID,918.009,VALID,0,VALID,104,VALID,365.085,VALID,22.3542,VALID,24,VALID,1.41875,
2016-08-20, 16:30:04,VALID,918.038,VALID,0,VALID,99.2493,VALID,378.515,VALID,22.4908,VALID,335,VALID,0,
2016-08-20, 16:31:04,VALID,918.043,VALID,0,VALID,86.2589,VALID,405.053,VALID,22.5689,VALID,236,VALID,0,
2016-08-20, 16:32:04,VALID,918.061,VALID,0,VALID,94.5227,VALID,403.012,VALID,22.686,VALID,14,VALID,0,
2016-08-20, 16:33:04,VALID,918.04,VALID,0,VALID,104,VALID,412.252,VALID,22.8634,VALID,360,VALID,0.798437,
2016-08-20, 16:34:04,VALID,917.993,VALID,0,VALID,88.7366,VALID,423.963,VALID,22.7836,VALID,12,VALID,0.404297,
2016-08-20, 16:35:04,VALID,918.026,VALID,0,VALID,84.437,VALID,415.367,VALID,22.725,VALID,314,VALID,1.08555,
2016-08-20, 16:36:04,VALID,918.04,VALID,0,VALID,98.7614,VALID,422.029,VALID,22.6274,VALID,355,VALID,0.160547,
2016-08-20, 16:37:04,VALID,918.022,VALID,0,VALID,92.4415,VALID,400.218,VALID,22.6079,VALID,338,VALID,0,
2016-08-20, 16:38:04,VALID,918.028,VALID,0,VALID,90.0783,VALID,355.845,VALID,22.6274,VALID,6,VALID,0,
2016-08-20, 16:39:04,VALID,918.015,VALID,0,VALID,86.6477,VALID,304.273,VALID,22.647,VALID,346,VALID,0,
2016-08-20, 16:40:04,VALID,918.03,VALID,0,VALID,86.7164,VALID,281.388,VALID,22.6274,VALID,349,VALID,0,
2016-08-20, 16:41:04,VALID,918.081,VALID,0,VALID,86.6859,VALID,270.429,VALID,22.5689,VALID,246,VALID,0,
2016-08-20, 16:42:04,VALID,918.048,VALID,0,VALID,95.4071,VALID,264.628,VALID,22.5672,VALID,255,VALID,0,
2016-08-20, 16:43:04,VALID,918.002,VALID,0,VALID,103.175,VALID,259.47,VALID,22.7055,VALID,32,VALID,0,
2016-08-20, 16:44:04,VALID,918.035,VALID,0,VALID,104,VALID,249.801,VALID,22.8812,VALID,88,VALID,0,
2016-08-20, 16:45:04,VALID,918.006,VALID,0,VALID,86.6172,VALID,236.048,VALID,22.8209,VALID,249,VALID,0,
2016-08-20, 16:46:04,VALID,918.02,VALID,0,VALID,89.2931,VALID,225.841,VALID,22.6843,VALID,267,VALID,0.0597656,
2016-08-20, 16:47:04,VALID,918.032,VALID,0,VALID,93.9205,VALID,220.577,VALID,22.6843,VALID,20,VALID,0,
2016-08-20, 16:48:04,VALID,917.952,VALID,0,VALID,102.733,VALID,227.131,VALID,22.7836,VALID,31,VALID,0.276953,
2016-08-20, 16:49:04,VALID,917.982,VALID,0,VALID,94.5761,VALID,244.644,VALID,22.8209,VALID,303,VALID,0,
2016-08-20, 16:50:04,VALID,917.935,VALID,0,VALID,86.8536,VALID,247.544,VALID,22.8794,VALID,9,VALID,0,
2016-08-20, 16:51:04,VALID,917.975,VALID,0,VALID,87.2881,VALID,243.891,VALID,22.9185,VALID,356,VALID,0,
2016-08-20, 16:52:04,VALID,917.976,VALID,0,VALID,85.7482,VALID,242.28,VALID,22.9575,VALID,183,VALID,0,
2016-08-20, 16:53:04,VALID,917.954,VALID,0,VALID,85.7558,VALID,246.577,VALID,22.9185,VALID,251,VALID,0,
2016-08-20, 16:54:04,VALID,917.95,VALID,0,VALID,87.6007,VALID,245.718,VALID,22.7606,VALID,270,VALID,0,
2016-08-20, 16:55:04,VALID,917.96,VALID,0,VALID,88.8433,VALID,251.305,VALID,22.7818,VALID,354,VALID,1.03164,
2016-08-20, 16:56:04,VALID,917.976,VALID,0,VALID,87.5244,VALID,257.322,VALID,22.8794,VALID,17,VALID,0,
2016-08-20, 16:57:04,VALID,917.935,VALID,0,VALID,88.1724,VALID,262.049,VALID,22.9592,VALID,13,VALID,0,
2016-08-20, 16:58:04,VALID,917.932,VALID,0,VALID,92.2891,VALID,266.884,VALID,23.0178,VALID,12,VALID,0,
2016-08-20, 16:59:04,VALID,917.951,VALID,0,VALID,89.4532,VALID,269.462,VALID,23.1136,VALID,16,VALID,0,
2016-08-20, 17:00:04,VALID,917.945,VALID,0,VALID,90.7263,VALID,271.396,VALID,23.252,VALID,21,VALID,0,
2016-08-20, 17:01:04,VALID,917.91,VALID,0,VALID,82.2262,VALID,280.099,VALID,23.252,VALID,236,VALID,0,
2016-08-20, 17:02:04,VALID,917.892,VALID,0,VALID,84.719,VALID,290.413,VALID,23.2502,VALID,22,VALID,0,
2016-08-20, 17:03:04,VALID,917.94,VALID,0,VALID,86.3809,VALID,298.364,VALID,23.3301,VALID,70,VALID,0,
2016-08-20, 17:04:04,VALID,917.935,VALID,0,VALID,85.0468,VALID,312.009,VALID,23.4064,VALID,70,VALID,0,
2016-08-20, 17:05:04,VALID,917.96,VALID,0,VALID,83.9948,VALID,321.894,VALID,23.4259,VALID,121,VALID,0,
2016-08-20, 17:06:04,VALID,917.955,VALID,0,VALID,85.5042,VALID,329.307,VALID,23.3869,VALID,49,VALID,0,
2016-08-20, 17:07:04,VALID,917.955,VALID,0,VALID,83.5603,VALID,336.183,VALID,23.3869,VALID,226,VALID,0,
2016-08-20, 17:08:04,VALID,917.989,VALID,0,VALID,83.8347,VALID,341.448,VALID,23.4259,VALID,21,VALID,0.620313,
2016-08-20, 17:09:04,VALID,917.981,VALID,0,VALID,83.7508,VALID,347.357,VALID,23.465,VALID,360,VALID,0,
2016-08-20, 17:10:04,VALID,918.01,VALID,0,VALID,83.7204,VALID,348.002,VALID,23.5821,VALID,16,VALID,0,
2016-08-20, 17:11:04,VALID,917.988,VALID,0,VALID,82.2643,VALID,354.663,VALID,23.6211,VALID,13,VALID,0,
2016-08-20, 17:12:04,VALID,917.989,VALID,0,VALID,82.371,VALID,352.729,VALID,23.6797,VALID,6,VALID,0,
2016-08-20, 17:13:04,VALID,918.032,VALID,0,VALID,80.8158,VALID,342.63,VALID,23.6602,VALID,112,VALID,0,
2016-08-20, 17:14:04,VALID,917.984,VALID,0,VALID,81.9212,VALID,328.77,VALID,23.6992,VALID,269,VALID,0,
2016-08-20, 17:15:04,VALID,917.958,VALID,0,VALID,82.4015,VALID,331.026,VALID,23.7205,VALID,42,VALID,0.302344,
2016-08-20, 17:16:04,VALID,917.956,VALID,0,VALID,81.8907,VALID,324.687,VALID,23.6974,VALID,19,VALID,1.61328,
2016-08-20, 17:17:04,VALID,917.953,VALID,0,VALID,79.6647,VALID,311.042,VALID,23.6211,VALID,255,VALID,0,
2016-08-20, 17:18:04,VALID,917.978,VALID,0,VALID,81.0369,VALID,299.009,VALID,23.5626,VALID,94,VALID,0,
2016-08-20, 17:19:04,VALID,917.98,VALID,0,VALID,79.9239,VALID,318.026,VALID,23.4046,VALID,273,VALID,0.785937,
2016-08-20, 17:20:04,VALID,917.902,VALID,0,VALID,80.9836,VALID,351.44,VALID,23.3851,VALID,348,VALID,1.21758,
2016-08-20, 17:21:04,VALID,917.943,VALID,0,VALID,80.5871,VALID,371.854,VALID,23.3283,VALID,85,VALID,0.493359,
2016-08-20, 17:22:04,VALID,917.934,VALID,0,VALID,81.8984,VALID,386.573,VALID,23.3283,VALID,32,VALID,0.0121094,
2016-08-20, 17:23:04,VALID,917.922,VALID,0,VALID,79.2683,VALID,406.128,VALID,23.3265,VALID,244,VALID,2.02305,
2016-08-20, 17:24:04,VALID,917.902,VALID,0,VALID,78.6584,VALID,413.756,VALID,23.0551,VALID,288,VALID,1.65,
2016-08-20, 17:25:04,VALID,917.954,VALID,0,VALID,83.0038,VALID,429.872,VALID,23.0143,VALID,10,VALID,0.0121094,
2016-08-20, 17:26:04,VALID,917.967,VALID,0,VALID,81.7688,VALID,411.822,VALID,23.0924,VALID,97,VALID,0.505469,
2016-08-20, 17:27:04,VALID,917.983,VALID,0,VALID,82.0813,VALID,410.748,VALID,23.2094,VALID,86,VALID,0,
2016-08-20, 17:28:04,VALID,917.993,VALID,0,VALID,82.3863,VALID,430.624,VALID,23.3461,VALID,342,VALID,0,
2016-08-20, 17:29:04,VALID,918.025,VALID,0,VALID,79.619,VALID,488.75,VALID,23.3656,VALID,346,VALID,0.725781,
2016-08-20, 17:30:04,VALID,918.072,VALID,0,VALID,79.6266,VALID,468.443,VALID,23.4046,VALID,296,VALID,0,
2016-08-20, 17:31:04,VALID,918.056,VALID,0,VALID,81.0674,VALID,490.147,VALID,23.465,VALID,126,VALID,0,
2016-08-20, 17:32:04,VALID,918.062,VALID,0,VALID,78.3077,VALID,450.393,VALID,23.6211,VALID,208,VALID,0.265625,
2016-08-20, 17:33:04,VALID,918.031,VALID,0,VALID,79.1463,VALID,430.517,VALID,23.6406,VALID,241,VALID,0,
2016-08-20, 17:34:04,VALID,918.031,VALID,0,VALID,77.4005,VALID,443.732,VALID,23.6602,VALID,295,VALID,0.276953,
2016-08-20, 17:35:04,VALID,918.018,VALID,0,VALID,79.8019,VALID,452.435,VALID,23.4454,VALID,344,VALID,0.573438,
2016-08-20, 17:36:04,VALID,917.956,VALID,0,VALID,80.5338,VALID,457.162,VALID,23.4454,VALID,13,VALID,2.74688,
2016-08-20, 17:37:04,VALID,917.914,VALID,0,VALID,78.4145,VALID,488.75,VALID,23.4632,VALID,32,VALID,0,
2016-08-20, 17:38:04,VALID,917.906,VALID,0,VALID,77.5911,VALID,517.759,VALID,23.5217,VALID,257,VALID,1.5918,
2016-08-20, 17:39:04,VALID,917.914,VALID,0,VALID,78.91,VALID,587.381,VALID,23.504,VALID,244,VALID,0.766797,
2016-08-20, 17:40:04,VALID,917.849,VALID,0,VALID,79.779,VALID,650.126,VALID,23.5998,VALID,5,VALID,1.45313,
2016-08-20, 17:41:04,VALID,917.87,VALID,0,VALID,77.1185,VALID,569.331,VALID,23.7169,VALID,313,VALID,0.0625,
2016-08-20, 17:42:04,VALID,917.852,VALID,0,VALID,78.9862,VALID,539.892,VALID,23.8731,VALID,359,VALID,0,
2016-08-20, 17:43:04,VALID,917.88,VALID,0,VALID,79.8858,VALID,520.123,VALID,24.1073,VALID,47,VALID,0.0933594,
2016-08-20, 17:44:04,VALID,917.835,VALID,0,VALID,76.5315,VALID,506.478,VALID,24.3007,VALID,336,VALID,0.344922,
2016-08-20, 17:45:04,VALID,917.87,VALID,0,VALID,73.5202,VALID,489.287,VALID,24.3593,VALID,314,VALID,0.987891,
2016-08-20, 17:46:04,VALID,917.933,VALID,0,VALID,75.1211,VALID,478.328,VALID,24.283,VALID,286,VALID,1.27422,
2016-08-20, 17:47:04,VALID,917.91,VALID,0,VALID,75.205,VALID,449.534,VALID,24.1073,VALID,281,VALID,0.25,
2016-08-20, 17:48:04,VALID,917.841,VALID,0,VALID,74.6561,VALID,426.649,VALID,24.0878,VALID,309,VALID,0.636719,
2016-08-20, 17:49:04,VALID,917.907,VALID,0,VALID,75.5176,VALID,412.896,VALID,24.0469,VALID,33,VALID,1.10977,
2016-08-20, 17:50:04,VALID,917.863,VALID,0,VALID,75.7234,VALID,392.16,VALID,24.0274,VALID,307,VALID,0.865625,
2016-08-20, 17:51:04,VALID,917.869,VALID,0,VALID,74.5418,VALID,375.937,VALID,24.086,VALID,248,VALID,0.155469,
2016-08-20, 17:52:04,VALID,917.843,VALID,0,VALID,74.7781,VALID,367.019,VALID,24.1055,VALID,171,VALID,0,
2016-08-20, 17:53:04,VALID,917.785,VALID,0,VALID,73.9319,VALID,470.915,VALID,24.2421,VALID,58,VALID,0,
2016-08-20, 17:54:04,VALID,917.821,VALID,0,VALID,73.2077,VALID,675.375,VALID,24.3202,VALID,235,VALID,0,
2016-08-20, 17:55:04,VALID,917.814,VALID,0,VALID,75.0449,VALID,780.56,VALID,24.455,VALID,166,VALID,0,
2016-08-20, 17:56:04,VALID,917.777,VALID,0,VALID,74.4579,VALID,924.316,VALID,24.4764,VALID,214,VALID,0.0289063,
2016-08-20, 17:57:04,VALID,917.755,VALID,0,VALID,71.5229,VALID,933.878,VALID,24.5155,VALID,277,VALID,1.00234,
2016-08-20, 17:58:04,VALID,917.708,VALID,0,VALID,73.2915,VALID,987.706,VALID,24.5155,VALID,347,VALID,0.761719,
2016-08-20, 17:59:04,VALID,917.711,VALID,0,VALID,74.3969,VALID,1004.57,VALID,24.6912,VALID,310,VALID,0.856641,
2016-08-20, 18:00:04,VALID,917.713,VALID,0,VALID,72.4911,VALID,1010.48,VALID,24.8474,VALID,345,VALID,1.56875,
2016-08-20, 18:01:04,VALID,917.736,VALID,0,VALID,73.4821,VALID,1029.39,VALID,25.0817,VALID,40,VALID,1.37188,
2016-08-20, 18:02:04,VALID,917.826,VALID,0,VALID,70.1049,VALID,943.763,VALID,25.3746,VALID,230,VALID,0.693359,
2016-08-20, 18:03:04,VALID,917.845,VALID,0,VALID,66.7659,VALID,769.923,VALID,25.4546,VALID,247,VALID,1.22031,
2016-08-20, 18:04:04,VALID,917.82,VALID,0,VALID,68.1915,VALID,689.88,VALID,25.1012,VALID,344,VALID,2.64883,
2016-08-20, 18:05:04,VALID,917.824,VALID,0,VALID,71.1646,VALID,764.551,VALID,24.8669,VALID,291,VALID,1.08789,
2016-08-20, 18:06:04,VALID,917.821,VALID,0,VALID,68.7022,VALID,739.625,VALID,24.7888,VALID,281,VALID,0.399219,
2016-08-20, 18:07:04,VALID,917.829,VALID,0,VALID,71.8507,VALID,797.536,VALID,24.7693,VALID,34,VALID,0.783594,
2016-08-20, 18:08:04,VALID,917.786,VALID,0,VALID,70.6614,VALID,823.966,VALID,24.9431,VALID,346,VALID,0.0390625,
2016-08-20, 18:09:04,VALID,917.738,VALID,0,VALID,71.3094,VALID,914.754,VALID,25.0621,VALID,8,VALID,2.76563,
2016-08-20, 18:10:04,VALID,917.726,VALID,0,VALID,68.5193,VALID,878.331,VALID,25.1207,VALID,30,VALID,1.84883,
2016-08-20, 18:11:04,VALID,917.74,VALID,0,VALID,69.1901,VALID,1003.29,VALID,25.2945,VALID,333,VALID,0.965234,
2016-08-20, 18:12:04,VALID,917.749,VALID,0,VALID,69.4112,VALID,865.976,VALID,25.5289,VALID,337,VALID,0.655859,
2016-08-20, 18:13:04,VALID,917.719,VALID,0,VALID,66.7811,VALID,770.246,VALID,25.7046,VALID,10,VALID,2.15508,
2016-08-20, 18:14:04,VALID,917.771,VALID,0,VALID,67.9628,VALID,841.264,VALID,25.7046,VALID,307,VALID,0.307813,
2016-08-20, 18:15:04,VALID,917.732,VALID,0,VALID,67.2995,VALID,664.738,VALID,25.7241,VALID,355,VALID,2.29648,
2016-08-20, 18:16:04,VALID,917.769,VALID,0,VALID,68.4354,VALID,595.546,VALID,25.607,VALID,8,VALID,0.540625,
2016-08-20, 18:17:04,VALID,917.73,VALID,0,VALID,68.9081,VALID,507.659,VALID,25.607,VALID,353,VALID,2.30938,
2016-08-20, 18:18:04,VALID,917.715,VALID,0,VALID,70.4709,VALID,452.112,VALID,25.4312,VALID,25,VALID,1.4625,
2016-08-20, 18:19:04,VALID,917.771,VALID,0,VALID,71.4771,VALID,421.814,VALID,25.236,VALID,13,VALID,1.20781,
2016-08-20, 18:20:04,VALID,917.756,VALID,0,VALID,71.1875,VALID,403.549,VALID,25.2164,VALID,17,VALID,1.76328,
2016-08-20, 18:21:04,VALID,917.756,VALID,0,VALID,73.0399,VALID,392.483,VALID,25.0993,VALID,5,VALID,2.0082,
2016-08-20, 18:22:04,VALID,917.761,VALID,0,VALID,70.9206,VALID,391.838,VALID,25.0407,VALID,240,VALID,0,
2016-08-20, 18:23:04,VALID,917.677,VALID,0,VALID,71.439,VALID,397.21,VALID,24.9607,VALID,19,VALID,1.61484,
2016-08-20, 18:24:04,VALID,917.673,VALID,0,VALID,70.3336,VALID,408.061,VALID,24.8241,VALID,27,VALID,1.59648,
2016-08-20, 18:25:04,VALID,917.7,VALID,0,VALID,72.3081,VALID,432.451,VALID,24.7265,VALID,338,VALID,0.989844,
2016-08-20, 18:26:04,VALID,917.69,VALID,0,VALID,69.6475,VALID,481.121,VALID,24.6679,VALID,313,VALID,1.41602,
2016-08-20, 18:27:04,VALID,917.634,VALID,0,VALID,74.3054,VALID,533.875,VALID,24.5703,VALID,3,VALID,1.13828,
2016-08-20, 18:28:04,VALID,917.681,VALID,0,VALID,71.8202,VALID,569.546,VALID,24.6502,VALID,241,VALID,0.285547,
2016-08-20, 18:29:04,VALID,917.647,VALID,0,VALID,71.9955,VALID,558.049,VALID,24.6874,VALID,20,VALID,2.29102,
2016-08-20, 18:30:04,VALID,917.66,VALID,0,VALID,73.8099,VALID,561.273,VALID,24.8241,VALID,16,VALID,0.949609,
2016-08-20, 18:31:04,VALID,917.601,VALID,0,VALID,73.7032,VALID,561.273,VALID,24.9802,VALID,23,VALID,1.16289,
2016-08-20, 18:32:04,VALID,917.572,VALID,0,VALID,73.566,VALID,556.115,VALID,25.0193,VALID,17,VALID,2.98906,
2016-08-20, 18:33:04,VALID,917.557,VALID,0,VALID,70.8444,VALID,549.239,VALID,25.1169,VALID,4,VALID,0.382422,
2016-08-20, 18:34:04,VALID,917.504,VALID,0,VALID,69.9753,VALID,537.958,VALID,25.2145,VALID,11,VALID,1.08281,
2016-08-20, 18:35:04,VALID,917.458,VALID,0,VALID,71.6525,VALID,524.85,VALID,25.0974,VALID,22,VALID,0.927344,
2016-08-20, 18:36:04,VALID,917.499,VALID,0,VALID,73.1467,VALID,506.155,VALID,25.0602,VALID,23,VALID,1.47461,
2016-08-20, 18:37:04,VALID,917.456,VALID,0,VALID,71.5839,VALID,494.659,VALID,25.1579,VALID,16,VALID,0.771875,
2016-08-20, 18:38:04,VALID,917.442,VALID,0,VALID,71.3628,VALID,491.543,VALID,25.236,VALID,9,VALID,0.507422,
2016-08-20, 18:39:04,VALID,917.435,VALID,0,VALID,70.6157,VALID,491.113,VALID,25.2555,VALID,30,VALID,1.33242,
2016-08-20, 18:40:04,VALID,917.441,VALID,0,VALID,71.2866,VALID,496.378,VALID,25.236,VALID,25,VALID,1.49531,
2016-08-20, 18:41:04,VALID,917.449,VALID,0,VALID,70.2574,VALID,497.453,VALID,25.1988,VALID,339,VALID,1.18594,
2016-08-20, 18:42:04,VALID,917.432,VALID,0,VALID,73.6651,VALID,497.882,VALID,25.1188,VALID,10,VALID,1.00352,
2016-08-20, 18:43:04,VALID,917.377,VALID,0,VALID,71.3475,VALID,505.94,VALID,25.0798,VALID,25,VALID,2.08906,
2016-08-20, 18:44:04,VALID,917.377,VALID,0,VALID,72.3233,VALID,494.659,VALID,25.0817,VALID,14,VALID,0.426562,
2016-08-20, 18:45:04,VALID,917.377,VALID,0,VALID,72.9713,VALID,466.939,VALID,25.0407,VALID,34,VALID,1.54531,
2016-08-20, 18:46:04,VALID,917.329,VALID,0,VALID,71.7592,VALID,440.401,VALID,24.9059,VALID,21,VALID,1.32539,
2016-08-20, 18:47:04,VALID,917.314,VALID,0,VALID,73.7565,VALID,415.26,VALID,24.8826,VALID,350,VALID,0.498047,
2016-08-20, 18:48:04,VALID,917.301,VALID,0,VALID,71.378,VALID,402.26,VALID,25.0017,VALID,312,VALID,0,
2016-08-20, 18:49:04,VALID,917.301,VALID,0,VALID,72.27,VALID,398.929,VALID,25.1579,VALID,135,VALID,0,
2016-08-20, 18:50:04,VALID,917.163,VALID,0,VALID,70.7072,VALID,403.334,VALID,25.275,VALID,344,VALID,0.898047,
2016-08-20, 18:51:04,VALID,917.195,VALID,0,VALID,70.8292,VALID,410.533,VALID,25.355,VALID,268,VALID,0,
2016-08-20, 18:52:04,VALID,917.225,VALID,0,VALID,70.2955,VALID,417.409,VALID,25.4722,VALID,13,VALID,0.202734,
2016-08-20, 18:53:04,VALID,917.212,VALID,0,VALID,68.2524,VALID,422.244,VALID,25.3922,VALID,216,VALID,0.184375,